Meteo pe oră la Almeirim

Astăzi, 23 Ianuarie, Sâmbătă

Timp Temperatura Precipitaţii Vânt Presiune Umiditate
00:00 +8°C° 0 mm 3 m/s 764 mmHg 88%
01:00 +8°C° 0 mm 3 m/s 763 mmHg 88%
02:00 +8°C° 0 mm 3 m/s 763 mmHg 88%
03:00 +9°C° 0 mm 3 m/s 763 mmHg 87%
04:00 +9°C° 0 mm 3 m/s 763 mmHg 87%
05:00 +10°C° 0 mm 3 m/s 762 mmHg 86%
06:00 +10°C° 0 mm 3 m/s 762 mmHg 87%
07:00 +11°C° 0 mm 3 m/s 762 mmHg 88%
08:00 +11°C° 0 mm 3 m/s 762 mmHg 89%
09:00 +12°C° 0.1 mm 4 m/s 762 mmHg 87%
10:00 +13°C° 0.1 mm 6 m/s 761 mmHg 86%
11:00 +12°C° 0.1 mm 7 m/s 761 mmHg 84%
12:00 +12°C° 0.2 mm 7 m/s 760 mmHg 86%
13:00 +14°C° 0.2 mm 7 m/s 759 mmHg 88%
14:00 +14°C° 0.2 mm 7 m/s 758 mmHg 90%
15:00 +14°C° 0.9 mm 7 m/s 758 mmHg 91%
16:00 +15°C° 0.9 mm 7 m/s 758 mmHg 92%
17:00 +15°C° 0.9 mm 8 m/s 758 mmHg 93%
18:00 +15°C° 0.5 mm 7 m/s 758 mmHg 93%
19:00 +15°C° 0.5 mm 7 m/s 758 mmHg 94%
20:00 +15°C° 0.5 mm 7 m/s 759 mmHg 94%
21:00 +14°C° 0.2 mm 6 m/s 759 mmHg 93%
22:00 +13°C° 0.2 mm 5 m/s 759 mmHg 92%
23:00 +12°C° 0.2 mm 4 m/s 759 mmHg 91%

Mâine, 24 Ianuarie, Duminică

Timp Temperatura Precipitaţii Vânt Presiune Umiditate
00:00 +11°C° 0 mm 4 m/s 759 mmHg 91%
01:00 +11°C° 0 mm 4 m/s 759 mmHg 91%
02:00 +11°C° 0 mm 3 m/s 760 mmHg 91%
03:00 +10°C° 0 mm 3 m/s 760 mmHg 91%
04:00 +10°C° 0 mm 3 m/s 760 mmHg 91%
05:00 +10°C° 0 mm 2 m/s 760 mmHg 92%
06:00 +10°C° 0 mm 2 m/s 761 mmHg 91%
07:00 +10°C° 0 mm 2 m/s 761 mmHg 91%
08:00 +12°C° 0 mm 1 m/s 762 mmHg 91%
09:00 +13°C° 0 mm 1 m/s 762 mmHg 86%
10:00 +14°C° 0 mm 1 m/s 762 mmHg 80%
11:00 +15°C° 0 mm 2 m/s 762 mmHg 74%
12:00 +15°C° 0 mm 2 m/s 762 mmHg 72%
13:00 +15°C° 0 mm 2 m/s 761 mmHg 70%
14:00 +16°C° 0 mm 2 m/s 761 mmHg 69%
15:00 +15°C° 0 mm 2 m/s 761 mmHg 74%
16:00 +13°C° 0 mm 2 m/s 761 mmHg 79%
17:00 +12°C° 0 mm 2 m/s 761 mmHg 84%
18:00 +12°C° 0 mm 1 m/s 761 mmHg 86%
19:00 +11°C° 0 mm 1 m/s 762 mmHg 87%
20:00 +10°C° 0 mm 0 m/s 762 mmHg 88%
21:00 +10°C° 0 mm 0 m/s 762 mmHg 88%
22:00 +10°C° 0 mm 0 m/s 762 mmHg 88%
23:00 +10°C° 0 mm 0 m/s 762 mmHg 88%

Poimâine, 25 Ianuarie, Luni

Timp Temperatura Precipitaţii Vânt Presiune Umiditate
00:00 +10°C° 0 mm 0 m/s 762 mmHg 87%
01:00 +11°C° 0 mm 1 m/s 762 mmHg 87%
02:00 +11°C° 0 mm 1 m/s 762 mmHg 87%
03:00 +11°C° 0 mm 1 m/s 762 mmHg 87%
04:00 +11°C° 0 mm 1 m/s 761 mmHg 87%
05:00 +11°C° 0 mm 1 m/s 761 mmHg 87%
06:00 +12°C° 0 mm 2 m/s 762 mmHg 87%
07:00 +12°C° 0 mm 2 m/s 762 mmHg 87%
08:00 +12°C° 0 mm 2 m/s 762 mmHg 86%
09:00 +13°C° 0 mm 2 m/s 762 mmHg 87%
10:00 +13°C° 0 mm 2 m/s 762 mmHg 87%
11:00 +14°C° 0 mm 2 m/s 763 mmHg 87%
12:00 +14°C° 0.1 mm 2 m/s 762 mmHg 88%
13:00 +15°C° 0.1 mm 1 m/s 762 mmHg 88%
14:00 +16°C° 0.1 mm 1 m/s 762 mmHg 88%
15:00 +15°C° 0.1 mm 1 m/s 762 mmHg 91%
16:00 +15°C° 0.1 mm 1 m/s 762 mmHg 93%
17:00 +14°C° 0.1 mm 1 m/s 763 mmHg 95%
18:00 +14°C° 0 mm 1 m/s 763 mmHg 96%
19:00 +14°C° 0 mm 1 m/s 764 mmHg 96%
20:00 +14°C° 0 mm 1 m/s 764 mmHg 97%
21:00 +13°C° 0 mm 1 m/s 765 mmHg 97%
22:00 +13°C° 0 mm 1 m/s 765 mmHg 97%
23:00 +13°C° 0 mm 1 m/s 765 mmHg 97%

26 Ianuarie, Marţi

Timp Temperatura Precipitaţii Vânt Presiune Umiditate
00:00 +13°C° 0 mm 1 m/s 765 mmHg 97%
01:00 +12°C° 0 mm 1 m/s 765 mmHg 97%
02:00 +12°C° 0 mm 1 m/s 766 mmHg 97%
03:00 +13°C° 0 mm 1 m/s 766 mmHg 97%
04:00 +13°C° 0 mm 1 m/s 766 mmHg 96%
05:00 +13°C° 0 mm 1 m/s 766 mmHg 96%
06:00 +14°C° 0.1 mm 1 m/s 766 mmHg 96%
07:00 +14°C° 0.1 mm 1 m/s 766 mmHg 95%
08:00 +14°C° 0.1 mm 2 m/s 767 mmHg 95%
09:00 +15°C° 0.1 mm 2 m/s 767 mmHg 94%
10:00 +16°C° 0.1 mm 2 m/s 767 mmHg 93%
11:00 +17°C° 0.1 mm 2 m/s 767 mmHg 92%
12:00 +17°C° 0.1 mm 2 m/s 767 mmHg 91%
13:00 +18°C° 0.1 mm 2 m/s 767 mmHg 90%
14:00 +18°C° 0.1 mm 2 m/s 767 mmHg 89%
15:00 +18°C° 0 mm 2 m/s 767 mmHg 91%
16:00 +17°C° 0 mm 2 m/s 767 mmHg 93%
17:00 +16°C° 0 mm 2 m/s 767 mmHg 95%
18:00 +16°C° 0 mm 1 m/s 768 mmHg 96%
19:00 +15°C° 0 mm 1 m/s 768 mmHg 96%
20:00 +14°C° 0 mm 1 m/s 768 mmHg 97%
21:00 +14°C° 0 mm 1 m/s 768 mmHg 97%
22:00 +14°C° 0 mm 1 m/s 768 mmHg 97%
23:00 +13°C° 0 mm 0 m/s 768 mmHg 97%

27 Ianuarie, Miercuri

Timp Temperatura Precipitaţii Vânt Presiune Umiditate
00:00 +14°C° 0 mm 1 m/s 768 mmHg 97%
01:00 +14°C° 0 mm 1 m/s 768 mmHg 97%
02:00 +14°C° 0 mm 1 m/s 768 mmHg 97%
03:00 +14°C° 0 mm 1 m/s 768 mmHg 97%
04:00 +13°C° 0 mm 0 m/s 767 mmHg 98%
05:00 +14°C° 0 mm 0 m/s 767 mmHg 98%
06:00 +14°C° 0 mm 0 m/s 768 mmHg 97%
07:00 +15°C° 0 mm 1 m/s 768 mmHg 97%
08:00 +15°C° 0 mm 1 m/s 768 mmHg 96%
09:00 +16°C° 0 mm 1 m/s 768 mmHg 94%
10:00 +18°C° 0 mm 1 m/s 769 mmHg 91%
11:00 +19°C° 0 mm 1 m/s 769 mmHg 89%
12:00 +19°C° 0 mm 1 m/s 768 mmHg 87%
13:00 +19°C° 0 mm 1 m/s 768 mmHg 85%
14:00 +20°C° 0 mm 1 m/s 767 mmHg 83%
15:00 +19°C° 0 mm 1 m/s 767 mmHg 86%
16:00 +18°C° 0 mm 1 m/s 768 mmHg 90%
17:00 +16°C° 0 mm 1 m/s 768 mmHg 93%
18:00 +15°C° 0 mm 1 m/s 768 mmHg 94%
19:00 +15°C° 0 mm 1 m/s 768 mmHg 95%
20:00 +14°C° 0 mm 1 m/s 769 mmHg 96%
21:00 +14°C° 0 mm 1 m/s 769 mmHg 96%
22:00 +13°C° 0 mm 1 m/s 769 mmHg 96%
23:00 +12°C° 0 mm 0 m/s 769 mmHg 96%

28 Ianuarie, Joi

Timp Temperatura Precipitaţii Vânt Presiune Umiditate
00:00 +12°C° 0 mm 0 m/s 769 mmHg 96%
01:00 +12°C° 0 mm 0 m/s 769 mmHg 96%
02:00 +11°C° 0 mm 0 m/s 768 mmHg 96%
03:00 +11°C° 0 mm 0 m/s 768 mmHg 97%
04:00 +11°C° 0 mm 0 m/s 768 mmHg 97%
05:00 +11°C° 0 mm 0 m/s 768 mmHg 97%
06:00 +12°C° 0 mm 0 m/s 768 mmHg 96%
07:00 +12°C° 0 mm 0 m/s 769 mmHg 96%
08:00 +14°C° 0 mm 1 m/s 769 mmHg 95%
09:00 +15°C° 0 mm 1 m/s 769 mmHg 91%
10:00 +16°C° 0 mm 0 m/s 769 mmHg 86%
11:00 +17°C° 0 mm 0 m/s 769 mmHg 82%
12:00 +17°C° 0 mm 0 m/s 769 mmHg 81%
13:00 +18°C° 0 mm 0 m/s 768 mmHg 79%
14:00 +18°C° 0 mm 0 m/s 768 mmHg 77%
15:00 +19°C° 0 mm 1 m/s 768 mmHg 82%
16:00 +18°C° 0 mm 1 m/s 768 mmHg 86%
17:00 +16°C° 0 mm 1 m/s 768 mmHg 91%
Arată mai mult

Formular de consimțământ

Meteoprog și furnizorii noștri de servicii pot stoca și accesa date personale, precum cookies, identificatori de dispozitiv sau alte tehnologii similare pe dispozitivul dumneavoastră și procesa astfel de date pentru a personaliza conținutul și reclamele, dar și pentru a oferi caracteristici de social media și pentru a analiza traficul.

  • Stocarea și/sau accesarea informațiilor pe dispozitivul dumneavoastră

    Cookies, identificatori de dispozitiv sau alte informații pot fi stocate sau accesate pe dispozitiv în scopurile indicate mai sus.

  • Reclame și conținut personalizat, evaluarea reclamelor și a conținutului, informații despre audiențe și dezvoltarea produselor

    Reclamele și conținutul pot fi personalizate pe baza unui profil. Pot fi adăugate date suplimentare pentru a personaliza mai bine reclamele și conținutul. Performanța reclamelor și conținutului poate fi măsurată. Pot fi obținute informații despre utilizatorii care au văzut reclamele și conținutul. Aceste date pot fi utilizate pentru a dezvolta sau îmbunătăți experiența utilizatorilor, sistemele și software-ul.

Dând clic pe ‘Sunt de acord’, permiteți utilizarea cookie-urilor menționate, a identificatorilor de dispozitiv, balizelor web sau altor tehnologii similare. Setările pot fi modificate din browser-ul dispozitivului dumneavoastră.

În anumite scopuri, interesele legitime pot prima asupra consimțământului. Puteți citi mai multe informații în acest sens în Politica privind Confidențialitatea Datelor și Cookie.